WORLDVIEW 3

导读

WORLDVIEW 3是美国发射的商业光学遥感卫星,于2014年8月13日成功入轨。它是全球首颗具备超高分多光谱成像能力的卫星,全色分辨率可达0.31米,能提供超高清晰度的地球表面观测数据。它广泛服务于城市规划、灾害监测、资源勘探、测绘制图等领域,大幅提升了高分辨率遥感对地观测的精度与应用范围。

Basic Information
目录编号:
40115
目录名称:
WORLDVIEW 3
国际标识:
2014-048A
轨道中心:
EARTH
卫星名称:
WORLDVIEW 3
卫星全名:
--
卫星状态:
在轨 (已飞行4415 天)
发射日期:
2014-08-13 UTC
国别 :
美国 (US)
星等 :
--
This satellite is enrolled in the Space Conjunction Data Service (SCDS) and the current flight risk assessment level is: No High Risk
Orbit Information
数据来源 国际轨道数据 AOE轨道数据
星历时间 2026-09-14T05:41:07+0800
8小时前
查看轨道信息
2026-09-12T23:00:00+0800
1天前
查看轨道信息
半长轴 6991.286km 6991.297km
偏心率 0.0002373 0.0002215
轨道倾角 97.850° 97.848°
近地点辐角 58.284° 66.572°
升交点赤经 330.484° 329.225°
平近点角 301.860° 301.991°
近地点 611.489km 611.611km
远地点 614.809km 614.709km
周期 96.961分钟 96.961分钟
每日圈数 14.851392 14.851358
Detailed Information
使用方式:
暂无
2D Orbit Map
3D Orbit Map
Orbit Altitude Analysis Chart
Orbit Inclination Analysis Chart
Orbit Comprehensive Analysis Chart
View Comprehensive Chart
Conjunction Data List
Event ID Objects TCA Miss Dist (km) Collision Risk Probability Collision Risk Index (CRI) Action
CDM_260914-101403-816904-011522
2026-09-14T
10:14:38+0000
2.145 km
极远距离
1.63673E-6 低风险 0.39
Miss Distance Evolution Trend with All Objects Subscribe to Flight Safety Assessment
Collision Probability Evolution Trend with All Objects Subscribe to Flight Safety Assessment